Wind_Speed
7 8 9 11 11 11 11 12 13 12 10 10 10 10 9 10 10 10 12 13 15 17 18 19 18 17 20 21 20 22 19 20 16 15 15 19 13 11 12 13 17 19 24 28 31
13 14 15 16 17 17 18 17 17 17 17 15 14 13 13 14 15 14 15 15 16 17 19 20 21 18 22 26 26 25 26 24 21 19 15 15 19 11 13 12 13 15 20 24 30
18 19 19 20 20 21 22 22 23 23 23 22 22 19 17 16 18 16 18 18 17 19 21 21 21 21 21 26 28 27 25 28 24 24 24 17 19 15 8 6 9 11 13 19 26
17 17 18 20 21 22 23 23 24 25 26 27 27 26 24 22 21 23 22 21 21 21 22 22 23 24 22 25 30 32 25 28 27 27 27 23 18 21 13 5 4 8 13 12 20
18 19 17 16 14 13 12 12 15 17 18 19 21 20 22 22 24 30 25 24 24 25 25 25 25 26 26 25 29 29 27 29 30 29 30 31 23 18 19 11 2 7 10 9 13
9 5 5 7 9 10 11 11 11 12 12 12 12 14 14 16 24 27 26 28 30 30 28 28 28 29 28 27 28 29 31 29 27 29 32 33 30 29 21 19 10 6 8 13 8
4 5 7 10 11 12 12 13 14 15 15 16 16 14 13 17 15 18 20 23 26 30 31 32 34 32 33 31 32 30 31 33 32 31 32 39 37 36 29 24 18 9 10 14 12
6 8 11 12 15 15 15 14 14 16 17 19 19 16 17 19 20 20 21 23 22 22 25 32 37 37 35 35 35 33 33 31 26 36 39 38 38 32 33 27 18 13 10 15 12
11 13 14 14 17 18 17 15 16 17 19 20 18 18 20 20 21 22 21 23 23 25 26 27 30 34 37 37 36 35 33 33 31 31 35 40 40 32 31 26 22 14 15 15 16
15 18 17 17 17 17 17 17 18 21 21 21 18 18 18 19 20 22 23 23 24 25 26 29 33 35 34 37 37 33 37 38 36 31 34 36 38 40 31 34 32 21 17 21 12
20 21 20 19 17 18 19 20 19 21 20 19 19 19 21 23 22 25 26 27 28 30 32 34 36 35 36 36 35 37 38 38 35 31 30 37 40 35 32 32 34 21 21 23 12
22 24 22 20 20 21 21 20 22 25 24 24 25 23 24 25 27 27 28 29 27 28 30 34 37 37 40 40 41 39 38 34 30 31 33 34 40 36 36 32 38 29 29 20 17
24 25 24 22 22 23 23 23 24 27 28 27 27 28 29 30 31 29 27 29 30 31 32 35 35 36 39 42 43 43 40 30 29 30 33 36 40 41 38 35 38 34 30 29 22
23 24 24 23 24 25 26 27 27 29 29 30 31 30 31 31 32 32 32 34 35 36 37 38 33 35 36 39 42 45 38 33 30 32 36 37 44 44 43 38 36 35 34 32 30
25 26 24 25 26 27 27 27 28 28 31 30 31 33 33 33 32 34 36 37 39 39 40 36 36 36 36 35 38 42 33 37 38 35 39 39 43 46 45 42 42 39 35 35 33
25 26 25 27 28 29 28 28 28 29 32 31 32 33 35 34 35 36 38 38 36 36 38 39 42 39 33 32 34 39 39 38 40 37 40 41 42 46 44 43 42 44 44 41 35
26 26 26 27 28 29 30 29 30 29 29 31 32 33 34 35 36 37 38 39 39 38 38 38 37 35 29 27 32 37 36 35 41 42 40 38 42 42 38 38 42 41 40 45 43
27 27 27 29 30 29 29 29 30 29 30 31 30 32 34 36 35 35 37 38 40 42 40 38 33 25 22 21 26 31 32 34 38 37 35 36 43 43 31 38 38 44 47 44 51
30 29 30 30 30 30 31 31 31 31 31 30 32 33 34 34 34 34 34 35 37 38 38 36 31 22 15 17 23 31 31 28 33 37 44 46 42 44 32 35 33 34 40 40 33
34 33 32 32 32 31 31 32 32 31 30 31 32 33 32 32 34 35 35 34 26 30 30 30 28 20 20 18 15 30 32 31 32 31 35 37 46 46 34 34 32 29 30 33 26
32 32 32 32 32 32 32 31 30 29 31 32 34 32 32 32 33 34 32 26 27 24 28 30 29 22 22 15 16 21 30 33 33 35 28 39 43 39 38 39 41 30 29 36 28
34 34 33 32 31 30 30 30 30 31 32 33 33 30 32 34 33 33 27 26 23 23 25 31 32 32 26 17 11 11 14 29 34 36 42 32 40 38 35 37 46 31 30 31 30
31 31 30 30 30 30 30 29 30 32 33 33 31 31 33 34 35 33 29 23 23 21 27 27 29 32 28 20 24 18 24 23 22 32 43 37 39 21 27 27 28 31 30 30 32
31 31 31 30 31 31 30 29 30 31 32 31 31 32 33 34 34 32 31 25 20 21 25 29 30 31 30 23 25 19 20 18 21 23 25 43 38 33 31 23 24 30 30 27 33
31 31 31 30 30 30 30 29 29 31 30 30 31 31 31 31 30 29 27 22 19 22 22 30 33 31 30 22 18 20 17 22 23 24 25 26 23 21 24 31 29 25 29 30 29
33 31 30 30 30 29 29 28 28 28 29 31 32 32 30 28 27 23 21 19 17 22 24 31 32 32 32 23 21 24 22 21 20 28 29 25 25 24 28 26 26 29 33 28 36
34 32 31 29 29 28 29 28 27 27 28 29 30 28 27 27 24 25 24 21 20 23 23 25 29 29 29 26 25 25 22 25 28 33 32 26 23 23 26 26 27 28 25 27 31
Wind_Direction
317 316 319 317 316 314 312 312 313 311 304 296 291 289 291 291 285 275 264 265 265 266 263 263 261 251 258 261 269 279 284 301 293 312 331 347 336 349 11 41 42 32 28 15 10
307 307 304 302 302 301 300 299 297 298 298 295 289 286 288 289 285 288 282 275 270 264 263 262 260 255 243 250 258 264 279 287 292 294 301 323 350 334 353 25 27 33 28 9 6
299 299 297 295 293 290 289 288 287 285 283 280 280 277 270 265 265 263 264 265 268 271 270 271 266 261 259 252 258 259 266 277 290 287 292 308 322 343 343 352 18 0 27 8 358
294 288 284 283 284 283 284 284 283 281 280 279 277 276 273 267 264 259 258 257 258 260 264 270 273 272 263 260 257 260 258 258 272 279 280 294 305 326 321 312 360 351 342 8 355
291 293 296 301 306 310 311 304 294 293 291 290 291 289 286 284 274 269 267 263 259 255 257 260 261 264 265 264 266 269 259 254 253 267 271 278 287 296 303 288 267 332 337 326 353
301 316 346 351 345 346 343 334 336 337 335 328 320 321 310 283 270 282 281 273 272 273 268 266 260 260 260 259 259 262 260 263 257 255 263 267 276 284 298 289 262 285 308 308 323
325 333 335 327 323 331 327 319 325 323 320 315 316 317 306 297 312 303 301 291 278 266 263 267 268 267 268 263 263 259 258 257 264 262 260 259 260 271 280 289 273 252 269 287 278
297 304 316 314 313 318 314 311 310 311 310 304 303 306 296 301 304 306 300 297 300 285 269 267 272 268 262 260 263 264 266 263 254 255 257 258 260 261 266 273 265 238 240 272 265
295 299 303 302 300 304 307 313 301 303 307 311 301 295 298 298 301 306 305 301 300 295 289 279 280 278 272 264 262 264 268 268 263 253 255 254 256 252 250 259 245 230 235 251 255
289 292 293 297 300 303 305 313 310 304 306 310 298 294 299 300 298 294 290 288 288 288 288 286 284 284 276 270 269 267 264 264 264 257 251 255 255 256 248 251 245 234 239 242 250
289 293 292 296 301 303 300 305 306 303 309 306 305 298 299 298 295 292 291 290 288 288 289 284 280 285 284 270 264 257 256 260 263 269 260 248 254 257 256 250 244 236 238 247 244
297 295 292 297 294 294 291 298 300 302 306 308 307 306 306 302 300 294 290 290 288 289 288 287 288 289 284 274 267 263 258 258 263 260 260 245 249 252 254 242 239 233 231 246 239
293 292 289 288 291 290 291 295 299 302 304 305 303 304 302 302 299 300 294 292 291 289 287 284 283 279 279 279 271 265 258 260 258 252 253 247 246 247 246 242 238 238 238 247 265
287 289 293 293 294 294 294 296 296 298 298 301 304 305 303 302 301 298 299 298 297 294 291 288 286 280 275 274 267 264 260 257 255 247 243 244 243 238 242 240 239 240 244 252 257
286 287 289 291 294 295 294 297 299 297 298 302 305 302 298 295 294 296 295 295 293 290 289 293 288 281 271 267 264 260 253 248 250 248 241 239 246 239 237 238 241 240 246 249 251
283 284 287 291 295 295 294 295 296 295 297 301 299 299 298 295 296 295 293 292 290 289 287 287 287 287 281 267 255 252 251 245 248 249 245 245 245 247 240 237 239 246 244 249 249
286 287 289 288 288 290 292 292 293 296 300 297 298 298 294 294 295 295 295 295 293 290 288 288 286 288 287 274 254 242 247 251 247 251 252 255 247 251 248 244 245 247 248 248 252
284 284 283 286 289 291 292 291 294 297 296 296 296 295 294 294 294 296 297 297 297 298 298 295 292 296 293 280 263 238 245 247 248 249 252 253 245 246 252 244 253 249 254 257 254
279 279 281 284 288 291 293 292 293 293 294 295 296 296 294 292 296 298 298 298 298 299 300 299 301 311 307 301 249 236 242 250 253 252 253 252 247 244 245 242 243 242 247 250 249
275 278 281 283 287 290 289 289 291 292 291 291 292 293 293 294 297 299 301 301 290 291 291 293 299 300 297 305 280 243 244 254 255 262 256 252 246 241 237 243 247 253 247 240 244
276 278 280 283 287 287 288 289 290 288 289 291 293 293 292 297 300 300 302 293 284 263 272 279 285 285 283 284 278 264 256 259 263 266 267 264 250 248 240 243 248 253 246 239 239
276 277 280 281 282 283 285 288 288 288 288 291 292 295 296 299 303 304 300 287 273 269 264 266 275 281 278 273 262 273 259 254 260 271 265 269 260 249 241 253 247 234 227 234 233
275 275 277 279 280 282 283 285 286 286 289 292 293 297 301 304 307 307 304 276 267 259 264 270 270 279 276 273 274 267 274 242 263 260 260 265 257 262 246 253 245 232 221 226 226
277 276 277 278 279 280 280 283 284 285 289 290 294 301 305 307 308 310 308 293 268 271 266 268 267 274 282 281 270 278 274 276 262 268 261 248 265 268 259 240 249 240 229 224 227
275 276 275 278 276 277 279 281 283 285 285 289 296 302 305 306 306 308 309 304 285 275 268 272 269 262 265 278 271 287 258 274 290 263 256 253 244 255 264 257 252 251 241 230 228
273 272 271 274 273 273 277 280 281 280 285 292 298 303 305 307 305 305 297 285 286 289 266 266 271 265 264 256 269 275 275 271 289 290 253 238 241 247 254 252 264 268 266 249 242
265 265 265 266 266 271 276 278 276 276 282 290 298 302 305 307 306 303 303 301 283 286 286 270 270 268 267 270 266 270 267 274 276 286 241 223 226 226 239 251 248 254 263 257 253
Height
5925 5925 5925 5926 5925 5925 5925 5925 5925 5925 5925 5925 5925 5924 5924 5924 5924 5924 5923 5923 5921 5921 5921 5922 5924 5925 5924 5925 5925 5925 5926 5926 5928 5926 5926 5923 5922 5919 5916 5913 5910 5909 5909 5909 5905
5923 5923 5923 5923 5923 5923 5922 5922 5922 5922 5922 5922 5923 5923 5923 5921 5921 5922 5922 5920 5920 5919 5918 5918 5918 5921 5922 5921 5922 5923 5924 5924 5924 5924 5925 5924 5922 5919 5917 5915 5913 5911 5910 5909 5908
5921 5920 5920 5920 5919 5919 5919 5919 5918 5917 5917 5917 5917 5918 5918 5918 5916 5916 5915 5915 5916 5916 5915 5915 5915 5916 5918 5918 5918 5919 5923 5921 5923 5922 5921 5921 5920 5920 5918 5917 5915 5913 5911 5910 5908
5917 5916 5915 5915 5914 5914 5914 5914 5913 5912 5911 5911 5911 5912 5912 5912 5913 5910 5911 5911 5912 5912 5912 5911 5912 5912 5914 5913 5912 5913 5918 5919 5920 5919 5920 5919 5918 5918 5919 5918 5916 5914 5912 5911 5909
5912 5912 5911 5911 5911 5910 5910 5909 5908 5908 5907 5906 5906 5906 5906 5907 5905 5905 5908 5908 5908 5907 5907 5907 5907 5906 5907 5909 5908 5908 5913 5914 5916 5915 5916 5916 5916 5916 5916 5916 5915 5914 5912 5911 5910
5908 5909 5909 5909 5909 5908 5907 5906 5906 5906 5905 5904 5903 5903 5903 5901 5898 5899 5901 5902 5903 5903 5904 5903 5903 5902 5903 5903 5902 5904 5905 5907 5909 5912 5910 5910 5912 5911 5913 5913 5913 5912 5911 5911 5909
5908 5908 5908 5907 5907 5907 5905 5904 5904 5902 5902 5901 5900 5900 5899 5897 5897 5895 5895 5895 5896 5896 5896 5897 5896 5898 5899 5899 5898 5898 5899 5902 5905 5908 5905 5903 5905 5906 5909 5910 5910 5910 5909 5909 5908
5906 5906 5906 5905 5904 5904 5903 5903 5901 5900 5899 5898 5897 5897 5895 5894 5893 5892 5892 5892 5891 5891 5891 5889 5888 5889 5891 5893 5894 5895 5895 5896 5900 5899 5899 5896 5897 5903 5903 5904 5906 5907 5906 5907 5906
5904 5904 5904 5903 5902 5901 5899 5899 5898 5897 5895 5894 5894 5893 5891 5891 5890 5890 5889 5888 5887 5886 5886 5885 5883 5882 5884 5886 5887 5889 5889 5889 5891 5892 5891 5890 5890 5896 5895 5896 5901 5902 5903 5903 5902
5901 5900 5900 5899 5899 5897 5895 5895 5893 5892 5891 5891 5890 5890 5889 5888 5887 5885 5884 5882 5881 5879 5879 5878 5877 5876 5876 5878 5881 5884 5882 5881 5880 5885 5886 5885 5884 5885 5890 5890 5894 5897 5899 5900 5900
5897 5895 5895 5894 5894 5893 5892 5891 5891 5889 5887 5887 5886 5884 5884 5882 5882 5879 5879 5878 5877 5875 5873 5871 5869 5869 5870 5871 5872 5873 5873 5872 5876 5878 5879 5879 5878 5882 5882 5885 5888 5893 5895 5896 5896
5891 5889 5890 5889 5889 5889 5887 5886 5885 5883 5882 5881 5880 5879 5878 5877 5875 5874 5872 5872 5871 5868 5866 5865 5863 5864 5862 5862 5861 5862 5863 5866 5870 5871 5867 5872 5872 5875 5875 5879 5881 5885 5889 5892 5892
5886 5884 5885 5885 5884 5884 5882 5881 5879 5877 5875 5876 5875 5874 5873 5871 5868 5867 5866 5864 5863 5861 5858 5856 5855 5853 5852 5852 5853 5853 5855 5861 5861 5863 5861 5861 5865 5868 5869 5872 5876 5881 5884 5886 5889
5882 5879 5879 5879 5879 5877 5876 5874 5873 5872 5870 5870 5869 5867 5865 5863 5860 5858 5857 5856 5853 5851 5848 5846 5847 5843 5843 5842 5844 5844 5850 5852 5852 5853 5853 5853 5852 5858 5863 5867 5871 5876 5879 5880 5883
5875 5873 5874 5872 5871 5871 5870 5869 5867 5866 5865 5865 5861 5858 5856 5856 5855 5850 5848 5847 5844 5841 5839 5839 5835 5832 5831 5833 5833 5834 5840 5840 5840 5843 5843 5845 5844 5850 5855 5861 5865 5870 5872 5874 5876
5869 5867 5866 5865 5864 5864 5863 5862 5861 5861 5859 5858 5854 5851 5848 5846 5844 5842 5839 5837 5834 5832 5829 5828 5823 5823 5823 5823 5823 5825 5826 5830 5832 5835 5835 5838 5840 5841 5850 5856 5859 5861 5865 5865 5868
5862 5861 5859 5859 5859 5857 5856 5855 5855 5853 5853 5851 5847 5844 5841 5839 5835 5832 5829 5826 5824 5822 5820 5818 5815 5813 5813 5813 5813 5815 5818 5821 5824 5826 5828 5831 5833 5833 5841 5848 5851 5854 5855 5855 5856
5855 5855 5854 5853 5852 5850 5849 5849 5847 5846 5843 5841 5840 5836 5833 5830 5826 5824 5820 5816 5812 5809 5807 5806 5805 5805 5805 5804 5806 5808 5811 5813 5813 5818 5822 5821 5822 5828 5833 5840 5840 5842 5844 5847 5848
5847 5847 5846 5846 5845 5843 5842 5840 5838 5837 5836 5833 5830 5828 5824 5821 5818 5815 5812 5808 5802 5799 5797 5794 5796 5798 5797 5797 5799 5800 5803 5808 5807 5808 5809 5813 5816 5820 5828 5832 5833 5834 5837 5838 5839
5839 5839 5839 5838 5836 5835 5833 5831 5829 5828 5826 5825 5823 5820 5817 5813 5809 5805 5802 5800 5795 5792 5790 5789 5789 5792 5792 5792 5794 5795 5798 5800 5800 5800 5800 5803 5804 5809 5822 5825 5827 5829 5830 5829 5831
5830 5830 5830 5829 5827 5826 5824 5822 5821 5820 5818 5816 5814 5812 5808 5806 5801 5797 5794 5791 5788 5789 5786 5785 5786 5789 5789 5789 5790 5791 5791 5793 5793 5792 5793 5795 5799 5808 5814 5816 5819 5822 5824 5824 5825
5820 5820 5820 5819 5819 5816 5815 5813 5812 5810 5809 5807 5805 5803 5800 5796 5793 5789 5786 5782 5780 5779 5781 5780 5779 5779 5783 5785 5784 5785 5785 5785 5786 5787 5788 5789 5795 5802 5804 5806 5810 5815 5817 5818 5820
5810 5810 5810 5809 5809 5807 5806 5805 5803 5801 5800 5798 5796 5795 5791 5787 5785 5781 5778 5776 5772 5772 5772 5773 5773 5772 5776 5780 5778 5777 5775 5777 5778 5780 5780 5783 5787 5793 5797 5799 5802 5806 5808 5809 5811
5802 5801 5801 5800 5799 5798 5797 5797 5795 5793 5791 5789 5788 5785 5782 5779 5776 5774 5772 5771 5769 5767 5767 5766 5766 5767 5768 5772 5773 5774 5772 5770 5772 5773 5774 5775 5784 5785 5790 5792 5795 5799 5802 5803 5802
5792 5792 5791 5791 5790 5789 5788 5788 5786 5785 5784 5782 5780 5778 5775 5772 5769 5767 5765 5764 5764 5761 5761 5758 5758 5761 5762 5766 5766 5766 5768 5767 5764 5765 5766 5770 5771 5776 5780 5785 5789 5793 5795 5796 5795
5782 5782 5782 5782 5781 5781 5780 5779 5779 5776 5776 5774 5772 5770 5768 5766 5763 5761 5759 5757 5758 5754 5753 5752 5750 5752 5754 5759 5759 5759 5760 5761 5759 5759 5758 5762 5765 5769 5774 5778 5783 5786 5788 5787 5789
5771 5772 5772 5773 5772 5773 5772 5772 5771 5770 5768 5766 5765 5763 5760 5758 5755 5753 5752 5751 5750 5748 5747 5746 5746 5746 5747 5752 5752 5752 5754 5754 5753 5751 5751 5755 5756 5763 5768 5770 5775 5778 5781 5780 5782